Regional Weather Roundup
Issued by NWS

Home | Current Version | Previous Version | Graphics & Text | Print | Product List | Glossary On
Versions: 1 2 3 4 5 6 7 8 9 10 11 12 13 14 15 16 17 18 19 20 21 22 23 24 25 26 27 28 29 30 31 32 33 34 35 36 37 38 39 40 41 42 43 44 45 46 47 48 49 50
176
ASUS45 KPSR 251610
RWRAZ

ARIZONA HOURLY REGIONAL WEATHER ROUNDUP
NATIONAL WEATHER SERVICE PHOENIX AZ
900 AM MST TUE APR 25 2017

NOTE: FAIR INDICATES FEW OR NO CLOUDS BELOW 12,000 FEET WITH NO
SIGNIFICANT WEATHER AND/OR OBSTRUCTIONS TO VISIBILITY.

AZZ001>003-036-251700-
NORTHWEST ARIZONA

CITY           SKY/WX    TMP DP  RH WIND       PRES   REMARKS
BULLHEAD CITY  PTSUNNY   77  19  11 N22       29.70S
KINGMAN        PTSUNNY   66  20  17 N25G31    29.79R
$$

AZZ004>008-015-016-018-251700-
NORTH CENTRAL ARIZONA

CITY           SKY/WX    TMP DP  RH WIND       PRES   REMARKS
GRAND CANYON   MOSUNNY   51  20  29 W13G22    29.80R
WILLIAMS       SUNNY     54  19  26 NW17G25   29.83R
PRESCOTT       SUNNY     61  30  31 N9        29.79R
FLAGSTAFF      PTSUNNY   50  28  42 W8G16     29.81R
PAYSON         CLOUDY    59  37  44 VRB7      29.82S
PAGE           SUNNY     61  23  23 NW10G21   29.71R
$$

AZZ009>014-017-251700-
NORTHEAST ARIZONA

CITY           SKY/WX    TMP DP  RH WIND       PRES   REMARKS
WINSLOW        CLOUDY    63  34  33 W20       29.73R
SAINT JOHNS    CLOUDY    54  36  50 NW14      29.75S
WINDOW ROCK    LGT RAIN  44  39  82 W7        29.76S
SHOW LOW       CLOUDY    52  28  40 S23G30    29.80S
$$

AZZ540-542>544-546-548-251700-
GREATER PHOENIX AREA

CITY           SKY/WX    TMP DP  RH WIND       PRES   REMARKS
PHOENIX        PTSUNNY   73  41  31 W15       29.69R
BUCKEYE        SUNNY     72  39  30 SW10      29.71S
GLENDALE       PTSUNNY   73  43  33 S13G22    29.71R
LUKE AFB       SUNNY     73  42  32 SW16      29.68R
DEER VALLEY    SUNNY     70  41  34 SW10      29.69R
SCOTTSDALE     SUNNY     72  40  31 W14       29.71R
MESA-FALCON    MOSUNNY  N/A N/A N/A SW17      29.71R
MESA-GATEWAY   MOSUNNY   72  46  40 SW15      29.72R
$$

AZZ539-553-251700-
SOUTHWEST MARICOPA COUNTY AND PINAL COUNTY

CITY           SKY/WX    TMP DP  RH WIND       PRES   REMARKS
CASA GRANDE    MOSUNNY   72  49  44 SW14G21   29.72S
GILA BEND      FAIR      72  44  36 SW14      29.71S
$$

AZZ503-504-507>509-251700-
SOUTHEAST ARIZONA

CITY           SKY/WX    TMP DP  RH WIND       PRES   REMARKS
TUCSON         SUNNY     73  36  25 W14       29.79R
DAVIS-MONTHAN  MOSUNNY   72  35  25 SW12G20   29.78R
RYAN FIELD     SUNNY     73  36  25 S17G24    29.79R
NOGALES        SUNNY     70  28  21 S17G25    29.84F
SIERRA VISTA   SUNNY     68  22  18 SW24G30   29.83S
DOUGLAS        SUNNY     70  21  15 SW26G37   29.82F
SAFFORD        MOSUNNY   74  31  20 NW23G32   29.70R
$$

AZZ532-251700-
SOUTHWEST ARIZONA

CITY           SKY/WX    TMP DP  RH WIND       PRES   REMARKS
YUMA           PTSUNNY   72  45  37 NW13G23   29.74R
$$

CAZ041-043-047-048-061-525>527-560>570-251700-
SOUTHERN CALIFORNIA

CITY           SKY/WX    TMP DP  RH WIND       PRES   REMARKS
DOWNTOWN L.A.  SUNNY     70  42  36 VRB6      29.88R
L.A. AIRPORT   PTSUNNY   69  41  36 NW14G20   29.89R
SAN DIEGO      PTSUNNY   63  55  75 S12       29.94R
BURBANK        MOSUNNY   64  39  39 W8        29.91R
ONTARIO        PTSUNNY   61  51  70 SE5       29.90R
RIVERSIDE      MOSUNNY   60  52  74 SE3       29.90R
PALM SPRINGS   PTSUNNY   74  43  32 NW17G24   29.77R
EL CENTRO NAS  PTSUNNY   76  39  26 W25       29.76R
IMPERIAL       MOSUNNY   75  45  34 W20G25    29.73R
BLYTHE         PTSUNNY   76  37  24 NW16      29.72R
NEEDLES        PTSUNNY   77  34  21 N9        29.73R
$$

NVZ020-UTZ003-251700-
SOUTHERN NEVADA-UTAH

CITY           SKY/WX    TMP DP  RH WIND       PRES   REMARKS
LAS VEGAS      PTSUNNY   69  18  14 N25G32    29.78R
SALT LAKE CITY LGT RAIN  40  38  93 N15       29.82R FOG     WCI  32
$$

NMZ009-TXZ055-251700-
NEW MEXICO-WEST TEXAS

CITY           SKY/WX    TMP DP  RH WIND       PRES   REMARKS
ALBUQUERQUE    LGT RAIN  47  44  90 SW10      29.75F FOG
EL PASO        MOSUNNY   75  18  11 SW37G48   29.70F
$$


........................KEY........................
SKY/WX - SKY CONDITION/WEATHER
TMP    - TEMPERATURE IN FAHRENHEIT
DP     - DEW POINT IN FAHRENHEIT
RH     - RELATIVE HUMIDITY IN PERCENT
WIND   - DIRECTION AND SPEED IN MILES PER HOUR (MPH)
VRB    - VARIABLE WIND DIRECTION
PRES   - MEAN SEA LEVEL PRESSURE IN INCHES OF MERCURY
         F - FALLING PRESSURE   R - RISING PRESSURE
         S - STEADY PRESSURE
VSB    - VISIBILITY IN MILES
HX     - HEAT INDEX IN FAHRENHEIT
WCI    - WIND CHILL INDEX IN FAHRENHEIT
TC     - TEMPERATURE IN CELSIUS WHICH IS ALSO KNOWN AS
         TEMPERATURE IN CENTIGRADE
AFB    - AIR FORCE BASE
         LUKE AFB IS LUKE AIR FORCE BASE
         DAVIS-MONTHAN IS DAVIS-MONTHAN AIR FORCE BASE
NAS    - NAVAL AIR STATION
         EL CENTRO NAS IS EL CENTRO NAVAL AIR STATION
N/A    - NOT AVAILABLE





USA.gov is the U.S. government's official web portal to all federal, state and local government web resources and services.